Regional Weather Roundup
Issued by NWS

Home | Current Version | Previous Version | Graphics & Text | Print | Product List | Glossary On
Versions: 1 2 3 4 5 6 7 8 9 10 11 12 13 14 15 16 17 18 19 20 21 22 23 24 25 26 27 28 29 30 31 32 33 34 35 36 37 38 39 40 41 42 43 44 45 46 47 48 49 50
754
ASUS43 KMKX 120610
RWRWI

WISCONSIN REGIONAL WEATHER ROUNDUP
NATIONAL WEATHER SERVICE MILWAUKEE/SULLIVAN WI
1200 AM CST TUE DEC 12 2017

NOTE: "FAIR" INDICATES FEW OR NO CLOUDS BELOW 12,000 FEET WITH NO
SIGNIFICANT WEATHER AND/OR OBSTRUCTIONS TO VISIBILITY.

WIZ001-002-006>008-014>016-023>028-120700-
NORTHWEST WISCONSIN

CITY           SKY/WX    TMP DP  RH WIND       PRES   REMARKS
SUPERIOR ARPT  PTCLDY    11   2  67 NW7       30.21S WCI   0
6HR MIN TEMP:  10; 6HR MAX TEMP:  19;

ASHLAND        CLOUDY    14   4  64 N16G23    30.15R WCI  -2
6HR MIN TEMP:  14; 6HR MAX TEMP:  19;

HAYWARD        CLOUDY    13   4  67 N8G17     30.12R WCI   2
6HR MIN TEMP:  13; 6HR MAX TEMP:  21; 6HR PCP: TRACE;

SIREN          PTCLDY    11   3  70 NW8       30.20R WCI   0
6HR MIN TEMP:  11; 6HR MAX TEMP:  21;

CUMBERLAND     PTCLDY    12   5  73 NW18      30.14R WCI  -5
RICE LAKE      MOCLDY    13   6  74 NW3       30.16S
6HR MIN TEMP:  13; 6HR MAX TEMP:  22;

CHETEK         PTCLDY    13   6  74 NW5       30.14S WCI   5
6HR MIN TEMP:  13; 6HR MAX TEMP:  22;

LADYSMITH      MOCLDY    15   6  68 N15       30.11S WCI  -1
6HR MIN TEMP:  15; 6HR MAX TEMP:  22;

EAU CLAIRE     PTCLDY    15   6  67 NW12G23   30.14R WCI   2
6HR MIN TEMP:  15; 6HR MAX TEMP:  26;

MENOMONIE      PTCLDY    16   8  72 NW10      30.17R WCI   3
6HR MIN TEMP:  16; 6HR MAX TEMP:  27;

NEW RICHMOND   CLEAR     13   6  73 NW10      30.19S WCI   0
6HR MIN TEMP:  13; 6HR MAX TEMP:  24;

OSCEOLA        PTCLDY    14   8  76 NW7       30.24R WCI   4
6HR MIN TEMP:  14; 6HR MAX TEMP:  25;

$$

WIZ003>005-009-010-017-018-120700-
NORTH CENTRAL WISCONSIN

CITY           SKY/WX    TMP DP  RH WIND       PRES   REMARKS
MANITOWISH WTR CLOUDY    12   7  81 N9        30.00R WCI  -1
6HR MIN TEMP:  12; 6HR MAX TEMP:  18;

ARBOR VITAE    FLURRIES  14   9  81 N12G18    29.98R WCI   0
6HR MIN TEMP:  14; 6HR MAX TEMP:  22;

WOODRUFF       FLURRIES  14   9  81 N12G18    29.98R WCI   0
6HR MIN TEMP:  14; 6HR MAX TEMP:  22;

RHINELANDER    MOCLDY    13   6  74 NW9G17    29.97R WCI   1
6HR MIN TEMP:  13; 6HR MAX TEMP:  20; 6HR PCP:  0.01;

EAGLE RIVER    PTCLDY    12   4  70 N15G24    29.95S WCI  -4
6HR MIN TEMP:  12; 6HR MAX TEMP:  20;

LAND O LAKES   SNOW      13   9  87 N7        29.97R VSB 1/2 WCI   2
6HR MIN TEMP:  13; 6HR MAX TEMP:  19;

PHILLIPS       CLOUDY    12   4  71 NW15G21   30.04R WCI  -4
6HR MIN TEMP:  12; 6HR MAX TEMP:  19;

TOMAHAWK       CLOUDY    13   6  73 NW14G21   30.01R WCI  -2
6HR MIN TEMP:  13; 6HR MAX TEMP:  20;

MEDFORD        CLOUDY    13   3  64 N15G28    30.02R WCI  -3
6HR MIN TEMP:  13; 6HR MAX TEMP:  23;

MERRILL        CLOUDY    16   7  69 NW17      30.00S WCI   0
6HR MIN TEMP:  16; 6HR MAX TEMP:  24;

$$

WIZ029-030-035-036-043>047-120700-
CENTRAL WISCONSIN

CITY           SKY/WX    TMP DP  RH WIND       PRES   REMARKS
WAUSAU         CLOUDY    17   7  64 NW15G25   30.00R WCI   2
6HR MIN TEMP:  17; 6HR MAX TEMP:  26; 6HR PCP: TRACE;

MOSINEE        CLOUDY    18   9  68 NW14G26   30.01S WCI   4
MARSHFIELD     CLOUDY    15   5  64 N21G31    30.02R WCI  -2
6HR MIN TEMP:  15; 6HR MAX TEMP:  28; 6HR PCP: TRACE;

STEVENS POINT  CLOUDY    17   6  63 NW14G20   30.02R WCI   2
6HR MIN TEMP:  17; 6HR MAX TEMP:  27;

WAUPACA        CLOUDY    23   8  54 NW17G25   30.00S WCI   9
6HR MIN TEMP:  22; 6HR MAX TEMP:  32;

WAUTOMA        CLOUDY    20   8  60 NW17G29   30.02R WCI   5
6HR MIN TEMP:  20; 6HR MAX TEMP:  30; 6HR PCP: TRACE;

WISC RAPIDS    MOCLDY    17   6  62 N12       30.05R WCI   4
6HR MIN TEMP:  17; 6HR MAX TEMP:  29; 6HR PCP: TRACE;

CAMP DOUGLAS   CLOUDY    19   8  63 NW16      30.06R WCI   4
6HR MIN TEMP:  18; 6HR MAX TEMP:  30; 6HR PCP: TRACE;

$$

WIZ011>013-019>022-031-037>040-048>050-120700-
NORTHEAST WISCONSIN

CITY           SKY/WX    TMP DP  RH WIND       PRES   REMARKS
ANTIGO         CLOUDY    14   7  75 NW13G20   29.95R WCI   0
6HR MIN TEMP:  14; 6HR MAX TEMP:  23;

SHAWANO        MOCLDY    20   7  56 NW8G20    29.98R WCI  11
6HR MIN TEMP:  20; 6HR MAX TEMP:  31;

OCONTO         CLOUDY    18   7  61 N13G20    29.97R WCI   5
6HR MIN TEMP:  18; 6HR MAX TEMP:  28;

STURGEON BAY   CLOUDY    18   7  62 N32G40    29.93R WCI  -2
6HR MIN TEMP:  18; 6HR MAX TEMP:  28; 6HR PCP: TRACE;

GREEN BAY      CLEAR     20   7  57 N17G26    29.97R WCI   5
6HR MIN TEMP:  19; 6HR MAX TEMP:  29; 6HR PCP: TRACE;

MANITOWOC      PTCLDY    19   9  65 N18G28    29.95R WCI   4
6HR MIN TEMP:  19; 6HR MAX TEMP:  29;

APPLETON       MOCLDY    19   5  53 N20       29.96R WCI   4
CLINTONVILLE   MOCLDY    19   9  63 N16G22    29.98S WCI   5
OSHKOSH        MOCLDY    21  11  65 NW16G28   29.97R WCI   7
6HR MIN TEMP:  21; 6HR MAX TEMP:  30; 6HR PCP: TRACE;

$$

WIZ032>034-041-042-053>061-120700-
SOUTHWEST WISCONSIN

CITY           SKY/WX    TMP DP  RH WIND       PRES   REMARKS
LA CROSSE      PTCLDY    20   9  62 N13       30.14R WCI   7
6HR MIN TEMP:  19; 6HR MAX TEMP:  33;

SPARTA         CLEAR     19  10  68 NW13G20   30.11R WCI   5
6HR MIN TEMP:  19; 6HR MAX TEMP:  31;

VIROQUA        PTCLDY    18  10  73 N13G18    30.07R WCI   4
6HR MIN TEMP:  18; 6HR MAX TEMP:  30;

BOSCOBEL       PTCLDY    23   9  55 NW12G21   30.11R WCI  12
6HR MIN TEMP:  23; 6HR MAX TEMP:  34;

PRAIRIE DU CHI CLEAR     23  11  60 NW10G18   30.12R WCI  12
6HR MIN TEMP:  23; 6HR MAX TEMP:  34;

PLATTEVILLE    CLEAR     23  13  66 NW18G26   30.05R WCI   8
6HR MIN TEMP:  23; 6HR MAX TEMP:  32;

$$

WIZ056-057-062-063-064-067-068-120700-
SOUTH CENTRAL WISCONSIN

CITY           SKY/WX    TMP DP  RH WIND       PRES   REMARKS
REEDSBURG      CLEAR     20   9  62 NW13G20   30.05R WCI   7
6HR MIN TEMP:  20; 6HR MAX TEMP:  31;

BARABOO/DELLS  CLEAR     20   9  62 NW14G22   30.03R WCI   7
6HR MIN TEMP:  20; 6HR MAX TEMP:  30;

LONE ROCK      PTCLDY    22  12  65 NW10      30.07R WCI  11
6HR MIN TEMP:  22; 6HR MAX TEMP:  33;

MINERAL POINT  PTCLDY    23  16  74 NW14G22   30.03R WCI  11
MADISON        CLEAR     21   8  57 N16G32    30.01R WCI   7
6HR MIN TEMP:  21; 6HR MAX TEMP:  31; 6HR PCP: TRACE;

MIDDLETON      CLOUDY    24  15  71 N18       30.02R WCI   9
6HR MIN TEMP:  24; 6HR MAX TEMP:  33;

WATERTOWN      CLOUDY    22  16  75 N14G20    29.97R WCI  10
6HR MIN TEMP:  22; 6HR MAX TEMP:  31;

MONROE         CLEAR     23  10  58 NW15G26   29.99R WCI  10
JANESVILLE     PTCLDY    27  10  50 N21G33    29.98R WCI  13
$$

WIZ051-052-058>065-066-070>072-120700-
SOUTHEAST WISCONSIN

CITY           SKY/WX    TMP DP  RH WIND       PRES   REMARKS
MILWAUKEE      CLOUDY    26  12  55 N10G29    29.92R WCI  16
6HR MIN TEMP:  26; 6HR MAX TEMP:  34; 6HR PCP: TRACE;

WAUKESHA       CLOUDY    21  10  63 NW17G29   29.95R WCI   7
MILWAUKEE/TIMM CLOUDY    25  12  58 NW21G28   29.94R WCI  10
RACINE         CLOUDY    26  13  57 NW22G35   29.93R WCI  12
6HR MIN TEMP:  26; 6HR MAX TEMP:  33;

BURLINGTON     PTCLDY    35  28  76 N23G31    29.94R WCI  23
6HR MIN TEMP:  35; 6HR MAX TEMP:  42;

KENOSHA        CLOUDY    27  13  55 NW23G39   29.92R WCI  12
6HR MIN TEMP:  27; 6HR MAX TEMP:  33;

FOND DU LAC    MOCLDY    22  10  60 N17G25    29.97R WCI   8
6HR MIN TEMP:  22; 6HR MAX TEMP:  30; 6HR PCP: TRACE;

SHEBOYGAN      CLOUDY    21  12  68 NW15G26   29.94R WCI   8
6HR MIN TEMP:  21; 6HR MAX TEMP:  29;

WEST BEND      CLEAR     21  10  63 N13G28    29.94R WCI   9
JUNEAU         MOCLDY    20   9  60 NW16G26   29.98R WCI   6
6HR MIN TEMP:  20; 6HR MAX TEMP:  30;

$$

LSZ147-162-120700-
LAKE SUPERIOR

STATION/POSITION TIME  TEMP    WIND        PRES    WAVE
                       AIR SEA DIR/SP/G            HT/PER
                 (UTC) (F)     (DEG/KT/KT) (MB)    (FT/S)
DEVILS ISLAND    0600   15     320/ 20/ 24 1021.9F
SAXON HARBOR     0530   18                 1019.6S
$$

LMZ867-665-643>646-120700-
LAKE MICHIGAN

STATION/POSITION TIME  TEMP    WIND        PRES    WAVE
                       AIR SEA DIR/SP/G            HT/PER




USA.gov is the U.S. government's official web portal to all federal, state and local government web resources and services.